Starlink 31706

operational
NORAD ID: 59437 Int'l Des: 2024-065 Owner: SPXS Country: US Constellation: starlink
LEOCIRCULAR

About Starlink 31706

Description loading...

Live Position

Loading 3D Globe...

Upcoming Passes

Altitude History

Altitude vs Time

uPlot chart will show altitude changes over time

Two-Line Element Set

1 59437U 24065S 25312.20848287 -.00006791 00000-0 -21723-3 0 9990
2 59437 53.1631 127.8321 0001406 85.3094 274.8067 15.30218358 90305
Epoch: Nov 8, 2025 • Age: 53 hours

Current Status

Altitude 477.5 km
Velocity 7.63 km/s
Sub-Earth Point -7.13°S, 91.57°W
Launch Date Apr 7, 2024
Age 1.5 years
Type internet

Technical Details

Classification Payload
Mass 730.00 kg
Dry Mass 700.00 kg
Total Mass 730.00 kg
Length 0.30 m
Diameter 4.10 m
Span 29.00 m
Shape Box + pan
Manufacturer SPXS
Bus Type Starlink V2M
Phase Status In Orbit
Owner/State SPXS/US

Large Constellations

Loading constellations...